Back to catalog

FENGYUN 1C DEB

AlivePO
NORAD 30103·DEBRIS·🇨🇳 China

Launched May 10, 1999 from Taiyuan Satellite Launch Center

Loading…

Next Passes (next 24 hours)

TLE

FreshSource: Space-Track

Epoch: Sep 14, 2026, 05:27 UTC

1 30103U 99025RG  26257.22774483  .00000558  00000-0  25203-3 0  9994
2 30103  99.2648 258.7569 0063936  53.6826   4.7214 14.25382195 18430

Track FENGYUN 1C DEB in real time with AllMySat

Download on the App Store